Theta_e
348 349 350 351 350 350 352 350 350 349 349 349 349 349 349 349 348 348 348 347 345 350 350 349 348 347 346 346 345 345 345 345 345 346 345 345 344 343 343 342 339 339 338 339 339 340 342 343 343 343 343 343 342 342 342 342 342 340 339 337 338 336
348 349 349 349 349 348 349 348 351 349 349 349 349 348 349 351 347 349 346 348 351 352 351 349 347 345 346 346 345 344 344 344 344 344 343 343 342 342 341 340 339 338 338 337 336 342 343 342 343 343 343 343 342 342 343 343 342 340 339 339 339 339
346 348 348 349 348 348 350 352 350 349 348 347 348 349 350 350 351 350 350 349 351 352 350 347 347 345 346 344 345 344 344 344 343 343 343 342 342 341 340 338 338 337 336 334 340 341 342 343 344 343 343 343 342 341 343 343 342 342 340 339 340 338
347 347 347 347 348 348 350 350 350 348 347 351 351 350 350 350 350 350 349 349 350 348 347 349 346 346 345 344 344 344 343 342 342 342 341 341 341 340 337 337 335 334 336 339 340 339 339 340 342 347 347 344 341 342 342 342 340 341 341 339 339 339
347 346 346 346 347 348 350 348 346 346 346 350 348 348 348 349 348 347 347 348 346 347 346 348 348 345 343 343 343 343 343 342 343 341 340 340 339 336 337 336 336 336 337 338 338 340 341 340 343 344 345 343 342 342 342 342 341 340 341 341 341 340
345 345 346 346 346 346 348 344 344 344 344 347 347 345 346 346 346 346 346 346 346 348 349 348 345 344 342 342 340 340 340 340 339 339 339 338 337 338 337 336 336 336 337 339 340 341 341 342 342 343 343 343 342 342 341 341 340 341 342 342 342 341
344 344 346 347 347 346 346 344 343 344 343 344 345 344 343 344 345 345 345 345 345 347 347 346 343 342 341 342 340 339 338 340 339 339 341 340 339 339 337 337 335 337 339 340 340 340 342 342 343 341 342 341 341 342 342 341 341 342 342 342 341 341
344 344 343 345 345 345 343 342 342 344 344 344 344 344 343 344 344 345 344 345 345 345 344 343 341 340 339 342 339 339 340 340 340 340 342 342 338 336 336 336 337 338 338 340 339 340 340 339 341 343 341 341 341 342 342 341 343 344 343 343 343 341
342 342 343 342 340 342 342 342 342 342 342 344 344 343 343 344 344 344 345 344 344 344 344 343 341 340 340 340 340 340 340 340 341 340 341 340 339 337 337 338 340 340 342 341 342 342 341 340 342 343 341 340 340 341 342 343 343 342 343 343 344 340
343 341 343 343 342 341 342 341 341 341 342 343 341 341 342 342 343 344 343 344 344 345 344 343 340 341 340 339 340 341 341 339 339 340 341 340 341 341 340 340 340 341 340 340 340 341 342 339 338 340 340 340 340 341 343 342 342 341 343 344 343 341
343 343 343 341 341 341 342 341 340 341 341 341 341 341 341 341 341 343 344 344 344 344 344 343 341 340 340 339 339 340 340 340 339 341 342 340 340 342 341 340 341 341 338 336 337 339 340 339 338 338 339 338 339 340 339 340 341 342 343 345 344 342
343 342 341 341 341 340 340 340 340 340 340 340 340 340 339 341 340 342 343 344 344 344 344 343 342 340 340 340 340 340 341 341 339 341 341 341 339 338 339 337 338 337 336 335 335 338 339 339 337 336 338 337 338 337 337 339 339 341 343 345 345 344
342 342 342 340 340 338 339 339 340 339 338 339 339 340 339 340 341 341 342 343 344 344 344 342 343 341 341 340 340 340 340 341 340 340 340 340 339 339 338 337 336 336 336 336 336 337 336 336 335 335 336 335 337 337 338 338 339 340 344 344 344 346
341 341 341 340 340 339 338 339 338 340 339 338 339 340 340 341 340 339 341 343 343 343 343 343 342 341 341 341 340 340 340 340 340 339 339 340 338 337 338 338 336 337 335 336 336 336 334 333 333 334 334 335 336 337 338 337 338 340 343 343 343 343
341 340 341 340 339 338 338 337 336 337 338 338 338 339 340 340 339 339 340 342 342 342 343 342 342 342 341 342 340 339 339 339 339 339 339 338 338 337 337 336 336 335 335 334 333 333 332 332 333 332 333 336 334 334 337 337 338 339 342 341 340 337
339 339 339 338 338 338 337 337 337 337 337 338 338 338 338 338 338 339 340 341 342 342 342 342 342 342 341 341 341 340 339 339 338 338 337 336 336 336 337 336 336 336 333 332 332 331 332 331 332 332 334 335 335 336 336 337 337 339 340 338 337 335
337 338 338 337 337 335 337 337 337 337 337 338 338 337 337 338 337 338 340 340 341 342 341 342 342 343 342 341 341 340 338 337 338 338 336 336 336 336 336 335 334 335 335 332 330 330 331 332 331 332 332 333 334 335 334 335 337 338 338 336 336 335
337 337 337 336 335 335 337 337 337 336 337 336 337 337 337 337 337 339 340 339 341 341 341 341 342 341 341 342 341 339 337 337 337 337 336 336 336 336 336 335 333 334 333 332 330 331 331 331 331 330 331 332 334 335 334 335 336 338 337 335 336 334
337 337 336 336 336 336 337 337 335 336 336 335 336 336 336 337 338 338 339 340 340 341 341 341 340 340 340 339 338 339 337 337 338 337 336 335 334 334 334 334 333 332 332 332 331 331 331 331 331 331 331 332 333 333 335 335 335 335 337 337 335 334
336 337 336 336 336 336 335 333 332 333 334 334 334 334 337 338 339 339 339 339 339 340 339 339 339 339 340 338 337 337 336 337 337 336 335 334 334 334 334 333 333 331 330 330 332 332 333 332 331 331 331 332 333 335 335 334 333 333 334 336 336 335
334 334 333 333 333 333 332 332 332 332 332 333 333 334 335 337 338 339 339 338 339 338 339 339 338 338 338 338 338 338 336 336 336 335 334 335 335 335 336 335 332 332 330 329 329 332 333 333 329 327 329 329 330 333 333 333 332 332 333 335 337 336
332 333 333 334 334 334 333 334 333 332 332 333 333 333 333 336 337 338 339 339 339 339 339 338 338 338 338 338 337 337 337 336 336 336 336 336 336 335 335 334 332 330 332 330 329 332 331 331 327 324 322 323 325 329 330 331 332 332 333 334 335 336
331 332 332 334 335 333 335 336 335 334 333 333 336 337 336 336 337 336 338 338 339 339 338 338 338 338 338 338 339 339 338 337 336 336 334 333 334 334 334 333 332 329 327 331 330 332 332 333 326 327 327 323 320 320 324 327 330 332 332 333 334 333
331 331 332 334 334 336 337 338 337 335 335 335 333 335 337 337 337 336 336 337 338 338 338 339 338 338 339 340 340 339 339 337 336 337 335 334 333 332 333 332 332 331 330 326 327 328 331 331 330 326 319 320 320 320 317 321 323 326 330 330 330 329
331 331 333 333 335 336 336 334 333 334 335 335 335 335 334 333 334 335 335 336 337 339 339 338 339 339 338 339 339 339 338 337 336 336 336 336 333 334 333 333 333 332 330 328 326 327 328 331 332 333 326 320 318 317 317 320 322 323 330 327 328 328
333 331 332 333 334 335 333 332 331 330 330 330 330 330 330 330 331 333 334 338 338 338 339 338 338 339 338 338 338 338 338 336 337 336 337 337 336 335 334 334 334 334 332 332 330 327 325 329 331 331 330 330 328 322 319 322 321 315 326 327 328 328
333 333 333 333 335 335 333 333 333 333 333 332 329 331 334 335 335 335 337 337 336 338 338 338 338 339 338 338 338 337 338 338 336 334 334 336 334 334 333 335 335 336 334 332 331 327 326 326 328 328 328 329 332 330 328 322 318 320 316 323 326 327
333 332 333 333 335 335 333 334 335 335 334 333 333 331 334 335 337 336 335 335 336 336 337 338 338 338 338 338 338 337 337 337 336 335 334 335 336 335 334 333 331 331 334 333 332 331 328 328 325 326 327 328 330 332 331 329 327 322 319 316 317 323
332 332 332 333 334 334 334 335 335 334 334 335 334 333 334 334 334 335 335 335 335 334 335 336 337 338 338 337 337 337 337 336 336 336 335 334 337 335 334 333 331 330 331 333 335 335 331 329 330 328 325 328 329 328 328 329 328 328 320 318 318 318
331 332 332 333 333 333 335 335 334 335 334 332 332 331 333 332 332 334 334 334 333 332 332 332 333 335 337 337 337 338 337 336 337 336 334 334 336 335 335 335 335 335 335 335 333 334 333 333 332 331 330 330 328 327 326 325 325 325 324 324 319 317
330 331 332 332 333 334 335 335 335 335 333 331 330 330 329 329 331 332 332 331 331 330 330 330 331 333 335 335 336 336 336 337 337 338 335 335 336 335 336 336 336 336 335 335 333 334 334 334 334 332 331 330 329 329 327 325 324 325 325 322 320 319
328 329 331 332 333 333 333 334 335 334 333 332 330 329 329 329 330 331 331 330 329 328 329 329 331 331 332 333 334 334 335 336 335 335 335 336 336 335 336 335 335 335 336 335 336 334 334 333 332 332 332 332 331 332 331 329 328 328 325 323 322 318
326 326 329 331 332 332 333 333 333 333 333 332 330 331 331 330 331 330 330 329 328 327 327 328 329 330 332 333 334 334 334 334 334 335 335 335 336 335 335 335 335 335 335 333 333 334 332 333 332 331 332 333 332 331 330 331 330 328 328 326 323 319
326 327 329 329 331 331 333 333 333 333 332 330 330 331 331 330 330 330 330 329 329 328 327 329 329 331 331 332 333 334 335 335 334 334 334 335 335 335 336 333 335 334 333 333 333 333 333 333 333 335 335 331 331 330 330 331 330 330 327 325 321 320
324 326 327 327 328 329 331 332 332 332 331 329 328 329 330 331 330 329 330 330 330 329 328 329 329 330 330 332 331 331 332 332 332 333 333 334 333 334 334 333 334 334 334 333 333 333 332 332 331 331 332 332 332 330 330 330 330 330 329 327 325 322
322 322 322 322 325 328 329 330 331 330 330 329 327 328 327 327 329 330 330 329 329 330 330 329 328 328 329 331 330 330 330 330 330 330 330 330 330 331 331 333 332 333 332 330 333 333 333 333 332 332 332 332 331 329 331 330 330 330 328 329 327 323
317 319 320 322 322 325 326 326 328 329 328 328 327 325 324 326 328 329 329 329 328 327 328 329 327 327 328 330 331 330 329 328 328 327 326 326 326 327 328 330 331 331 331 330 332 331 331 332 332 332 331 332 331 330 330 331 330 331 330 328 325 324
Wind_Speed
13 13 12 12 12 13 13 16 14 15 15 14 13 14 14 15 14 13 13 13 11 9 9 9 9 10 12 9 8 9 10 11 12 14 14 13 11 9 9 9 9 8 6 4 5 7 7 7 7 8 10 10 11 6 4 4 4 4 4 5 5 7
12 13 12 10 10 10 11 13 13 13 13 13 13 13 12 10 11 9 12 10 7 6 6 7 9 10 9 10 9 9 10 11 13 13 13 11 10 9 9 9 8 7 4 3 1 4 6 8 7 9 10 11 6 4 5 4 4 4 5 5 5 8
14 13 13 12 10 10 11 8 10 11 9 12 12 10 10 10 9 10 9 8 6 5 7 8 7 8 8 10 10 10 11 12 12 12 12 10 9 8 8 8 8 7 5 1 1 3 3 4 5 10 11 7 4 5 5 5 4 4 4 5 6 9
14 14 12 10 10 10 9 8 8 9 9 7 8 8 9 8 8 8 8 7 6 8 8 6 11 14 11 8 9 9 11 12 12 11 10 8 9 8 9 9 8 4 2 1 3 3 3 4 4 6 7 5 5 5 5 5 4 4 4 5 6 9
13 14 12 10 11 9 9 8 8 8 8 6 7 6 6 7 7 8 8 6 8 8 8 7 7 7 6 7 7 7 7 6 5 6 5 5 4 4 3 3 3 2 1 2 3 3 3 4 4 5 5 5 5 6 5 4 4 4 4 5 7 7
12 12 11 10 11 10 10 9 8 8 8 6 6 6 5 6 7 8 7 7 8 7 7 6 7 7 7 7 7 6 5 5 5 4 3 4 4 4 3 3 3 2 1 1 2 2 2 2 4 4 5 5 5 5 5 5 4 4 4 5 7 6
11 10 10 9 8 8 8 8 8 8 9 7 7 7 6 6 6 8 7 7 7 6 6 6 7 7 6 5 5 5 5 5 5 4 2 4 4 3 2 2 1 1 1 2 3 2 2 2 2 5 5 6 5 5 5 5 5 4 5 5 7 6
8 9 8 8 9 7 8 8 9 8 6 7 7 6 6 6 7 7 8 7 7 6 6 6 7 7 6 5 5 5 5 7 6 6 4 3 3 2 3 2 2 1 2 2 3 3 2 3 2 3 5 5 5 5 4 4 4 5 5 5 6 7
9 9 8 8 8 6 8 9 8 9 7 8 6 6 6 7 7 7 7 8 7 6 5 6 7 7 5 5 5 5 6 6 6 6 5 3 2 2 2 2 2 2 2 2 2 2 1 3 2 2 3 5 5 5 4 4 5 5 5 4 5 7
9 9 9 9 8 8 8 9 9 8 8 9 6 6 7 7 6 6 7 7 7 6 6 6 7 6 6 6 5 5 5 6 5 5 5 4 2 2 2 2 2 2 3 3 2 2 1 2 3 3 3 4 3 4 4 4 5 5 5 4 4 6
8 8 7 8 8 9 9 10 8 8 7 8 8 7 6 6 6 5 6 7 7 7 6 6 7 7 7 7 6 6 6 5 5 5 4 4 2 2 2 2 2 3 4 3 3 2 1 2 3 3 3 3 4 3 4 4 4 4 5 4 4 4
10 8 8 8 7 8 9 9 10 7 8 8 9 7 6 6 6 6 7 7 7 6 7 6 8 7 7 7 6 6 6 6 5 4 4 3 3 3 2 3 4 4 5 4 3 2 2 2 3 3 3 4 4 5 4 5 5 5 4 4 4 3
11 10 10 10 8 9 7 8 7 5 6 8 8 7 7 7 6 6 6 7 7 7 6 7 6 7 7 6 6 6 5 5 4 4 3 3 3 3 3 3 4 4 4 4 4 4 3 3 3 3 2 3 3 4 4 5 5 5 5 4 3 3
11 10 12 10 9 6 7 8 7 5 4 7 7 8 8 7 6 6 6 7 7 8 7 6 7 7 6 6 5 5 5 4 4 4 4 3 3 2 2 3 4 4 4 4 4 4 4 4 4 3 3 3 3 3 3 4 5 4 4 4 3 4
9 11 10 9 11 8 8 5 4 5 5 6 7 7 7 7 6 6 6 7 7 7 7 7 7 6 6 5 5 4 4 4 4 4 3 3 3 3 3 4 4 4 4 4 4 4 4 4 4 4 3 3 4 4 4 4 5 5 5 4 3 5
11 12 11 10 11 9 8 6 5 6 6 7 7 7 6 6 6 6 7 7 7 7 7 7 6 6 6 5 5 5 4 4 5 4 4 4 3 3 3 4 3 4 5 5 5 4 4 4 4 4 4 4 4 4 4 4 5 5 5 3 4 4
12 11 10 10 8 8 6 8 6 6 6 8 7 6 6 6 6 6 6 6 6 6 7 6 5 5 5 6 5 5 5 5 5 5 4 4 4 4 4 4 4 3 4 5 5 5 4 4 5 5 4 5 5 5 5 4 5 5 5 4 4 4
10 10 9 9 9 9 8 8 7 7 7 7 7 6 6 6 6 6 6 6 6 6 6 6 5 5 5 5 5 5 5 6 6 5 5 4 4 4 3 4 4 4 4 5 5 5 5 5 4 5 5 5 5 5 6 6 6 5 4 4 4 5
10 10 10 10 11 9 9 7 7 7 8 7 6 5 5 6 6 5 6 6 7 6 6 6 5 6 5 5 5 5 5 6 6 5 5 5 5 5 4 4 4 5 4 4 5 5 5 5 5 6 6 6 6 6 5 6 5 5 5 4 5 6
10 9 8 8 9 8 8 9 7 7 7 6 6 6 5 6 6 6 7 7 7 6 6 5 5 6 5 5 6 5 6 6 6 6 6 6 6 6 6 6 6 6 7 6 5 6 7 7 8 8 8 7 7 7 7 6 6 5 5 5 4 4
9 6 5 8 8 9 9 8 8 8 8 7 6 6 5 5 6 6 7 7 7 6 6 6 6 6 6 6 6 6 6 6 6 6 6 6 7 7 7 6 6 5 7 7 6 6 7 8 9 9 7 8 8 7 7 7 7 6 5 4 4 3
8 10 9 8 8 9 9 9 8 8 8 7 6 6 6 6 6 6 6 6 6 6 6 6 6 6 6 6 6 6 6 6 6 6 5 5 6 6 6 6 6 6 5 6 6 7 8 8 7 7 7 7 7 7 7 7 6 5 5 5 5 4
10 10 10 8 8 8 8 9 9 8 9 7 6 6 7 7 6 6 6 6 6 5 6 6 6 6 6 6 5 5 4 5 5 5 6 6 6 6 6 7 7 6 6 4 5 6 6 3 5 6 6 7 6 5 3 4 5 6 6 5 5 5
12 10 9 10 8 9 10 9 8 9 8 6 7 6 7 7 6 6 6 6 6 6 6 6 6 7 5 5 4 4 4 5 5 5 6 7 6 6 6 5 6 6 7 7 6 5 4 3 5 8 6 2 4 4 6 4 5 5 7 7 6 5
12 11 10 10 11 10 9 9 8 8 7 7 7 7 7 6 6 7 6 6 6 7 6 6 6 6 5 5 4 4 5 5 5 5 5 5 6 6 6 6 7 7 8 7 8 6 3 4 4 3 3 5 4 4 2 7 7 4 3 5 6 5
11 10 10 12 12 11 11 10 10 10 10 9 9 9 9 9 8 8 8 7 6 6 6 6 6 6 5 5 5 4 4 5 5 4 3 3 4 6 7 6 7 7 7 6 6 7 6 3 4 1 4 5 4 2 6 7 6 4 4 4 6 5
11 10 10 11 13 9 11 11 12 11 11 10 10 8 7 8 9 7 7 7 6 5 6 6 6 5 5 5 5 5 6 5 5 4 4 4 4 4 4 6 5 5 6 6 6 6 7 6 5 2 1 3 3 1 5 7 4 6 6 4 4 5
9 10 10 11 12 12 12 11 11 10 9 9 9 10 9 8 6 6 8 8 7 6 5 5 5 4 4 4 5 6 5 5 5 5 5 5 5 5 5 3 4 5 4 5 6 5 6 6 7 5 2 1 2 3 4 2 5 5 5 7 6 7
11 10 10 13 13 13 11 11 10 9 7 5 8 9 8 6 7 6 7 5 5 5 4 3 3 4 4 5 5 5 5 5 5 5 5 5 5 5 5 5 6 6 6 5 4 2 4 6 6 4 5 3 3 4 3 2 4 3 5 7 8 7
12 11 12 13 12 13 12 10 10 8 9 7 6 6 6 6 6 7 7 5 4 4 3 3 3 3 4 4 4 4 5 5 5 5 4 4 5 5 5 5 7 7 7 6 3 4 4 4 4 4 5 4 4 4 4 4 4 4 4 5 7 8
12 11 13 14 14 14 11 12 9 10 11 11 9 8 7 6 6 6 6 6 5 4 3 4 4 3 3 4 3 3 3 4 3 3 3 4 4 5 6 5 5 6 6 6 5 5 4 3 3 5 6 5 4 5 4 5 6 6 5 5 8 8
11 10 13 13 14 13 12 10 8 10 11 10 10 8 9 8 8 8 7 6 4 4 3 3 3 4 4 4 4 3 3 3 3 3 3 3 3 4 4 4 4 4 4 5 4 4 4 5 5 4 6 5 4 3 2 3 5 5 5 5 6 8
11 10 12 14 14 11 10 9 8 10 10 9 8 9 9 8 7 7 6 6 5 5 4 3 3 4 4 5 4 4 3 3 3 2 3 3 3 3 3 3 4 4 4 5 5 5 4 5 6 5 5 4 3 3 3 2 4 5 4 5 7 8
9 10 8 12 10 9 8 8 8 8 8 8 7 7 8 8 7 6 6 7 6 6 6 5 4 4 5 5 4 3 4 3 3 3 2 2 3 3 3 3 3 3 4 4 3 4 4 4 5 5 4 4 4 3 2 2 4 5 6 7 7 8
7 3 4 5 8 8 8 8 8 8 8 6 7 6 6 6 7 6 6 7 5 5 6 4 4 4 5 5 5 4 4 5 3 3 2 2 2 2 2 2 2 2 2 2 3 3 3 5 5 5 4 4 3 3 2 3 5 5 6 6 7 9
10 8 6 1 1 7 6 7 9 9 8 7 5 5 4 5 5 7 7 7 6 4 4 4 3 4 4 4 5 6 5 5 4 3 2 2 2 2 2 2 2 3 3 2 3 4 3 5 5 6 6 3 3 3 2 3 4 5 5 5 6 8
11 9 8 9 4 2 4 4 5 5 6 6 7 7 6 8 7 5 5 4 4 4 3 3 3 2 4 3 4 5 6 5 5 4 3 2 2 2 2 2 2 3 3 2 2 3 3 3 4 5 4 4 3 3 3 4 4 4 4 5 6 5
Wind_Direction
158 153 148 148 146 143 143 142 140 137 135 137 138 140 140 137 136 131 129 126 131 131 130 129 127 119 116 115 103 110 116 114 112 113 115 110 106 104 98 93 94 99 104 100 92 90 78 96 107 135 143 139 140 157 135 131 127 117 106 113 112 100
155 153 150 147 145 145 146 149 145 143 144 141 143 141 139 137 134 134 133 133 130 129 129 128 124 123 122 123 117 107 113 111 109 108 107 105 104 103 98 97 102 107 104 90 58 127 106 90 99 131 147 144 161 142 145 135 126 118 113 108 106 115
156 153 152 148 147 147 141 135 143 144 143 149 139 139 136 137 136 136 136 132 130 135 135 133 127 123 121 118 116 113 114 112 109 105 101 101 106 108 101 94 88 82 72 44 145 98 112 121 118 135 146 163 157 154 139 132 130 127 121 105 102 122
156 157 154 152 150 144 137 143 146 144 150 131 135 138 139 135 133 131 132 133 140 138 134 124 124 121 123 127 119 111 109 109 104 103 107 111 105 92 91 84 80 84 128 118 105 131 130 132 135 155 161 163 160 147 144 144 144 132 119 123 111 138
159 161 158 152 153 145 141 143 143 139 144 133 134 134 133 135 139 140 136 137 139 136 132 127 132 129 127 129 131 133 131 125 118 107 103 107 110 98 89 97 105 102 96 130 123 130 156 139 134 148 154 157 153 152 146 146 145 142 128 124 123 151
160 159 155 154 152 147 142 143 138 136 139 138 139 136 137 143 143 140 138 139 137 132 128 130 133 130 132 133 131 128 116 109 105 102 104 113 113 114 115 107 97 106 123 150 133 148 157 145 142 140 149 154 154 156 153 155 152 146 135 130 134 150
158 159 152 141 141 143 146 138 140 145 147 142 147 142 144 146 146 145 141 141 140 137 137 138 130 133 128 129 121 119 116 113 107 104 112 118 108 103 99 91 84 106 123 115 114 132 150 135 128 143 143 153 157 153 156 160 154 152 144 139 137 142
152 152 143 135 140 144 135 138 146 140 139 152 151 147 148 152 149 148 146 146 144 145 142 133 134 133 134 128 124 124 125 125 120 120 118 111 111 101 104 105 127 128 124 96 114 129 136 127 123 130 139 144 150 153 161 161 153 148 152 143 142 151
148 145 133 142 137 137 143 145 140 143 150 156 163 152 156 153 152 151 149 147 150 147 145 143 141 140 139 131 129 131 132 124 122 124 126 108 106 115 114 121 107 112 96 80 68 81 82 92 106 115 137 143 155 154 157 157 155 155 159 150 149 142
144 140 144 147 122 138 147 148 145 146 160 162 162 163 157 157 155 151 150 154 157 154 151 148 143 143 140 133 134 131 131 133 129 132 135 130 122 134 118 111 120 106 85 83 72 49 54 97 104 105 116 137 137 148 149 159 160 164 157 161 143 139
142 134 133 130 133 143 159 150 147 151 154 162 162 157 160 156 150 149 149 156 158 158 150 147 145 146 145 145 148 148 147 144 141 136 132 126 122 92 95 102 99 94 96 94 72 52 74 87 96 106 104 119 127 144 156 168 162 159 162 152 149 150
149 138 139 134 134 150 158 154 155 148 146 156 160 157 156 157 155 151 153 156 159 159 154 148 150 151 150 151 152 149 146 147 139 136 134 130 127 115 116 118 109 102 105 109 111 88 81 78 75 82 105 108 136 160 160 165 171 163 156 154 148 141
153 148 155 150 137 165 152 153 151 144 142 153 166 159 159 163 159 155 154 156 159 162 160 151 154 154 153 155 154 151 149 144 140 139 140 137 130 131 138 136 117 115 126 134 124 108 97 89 80 73 84 113 135 155 157 165 164 161 150 143 145 116
157 162 170 160 145 136 152 155 149 139 147 158 167 167 165 162 159 155 158 163 164 168 167 158 156 157 158 156 155 157 153 150 140 139 140 147 149 152 141 138 132 139 132 134 107 102 125 107 99 104 107 116 130 141 154 153 160 150 126 139 123 144
159 162 165 159 162 140 142 128 129 149 167 170 168 169 165 163 162 161 163 168 169 170 169 167 165 160 161 157 157 157 159 152 147 151 155 150 155 152 151 149 148 139 128 121 108 94 98 96 96 101 106 115 119 126 146 145 147 144 132 129 125 89
161 158 159 157 155 142 141 132 145 163 175 176 171 172 167 165 163 163 169 169 176 173 174 170 168 166 165 169 166 163 161 157 157 160 159 149 154 152 147 143 129 137 134 124 116 103 106 106 104 102 106 109 107 109 122 138 141 116 119 138 116 91
153 156 153 146 135 111 136 145 149 159 185 176 171 170 169 165 164 167 168 171 174 173 179 172 169 163 173 172 169 164 160 161 163 164 159 154 154 146 151 140 124 118 131 130 127 122 117 112 105 94 101 109 111 106 98 107 113 110 126 136 122 118
148 150 145 140 133 140 157 147 154 166 180 172 165 165 165 167 167 166 169 175 174 173 175 173 173 172 182 178 173 165 159 159 160 159 155 157 148 147 150 146 128 123 130 134 133 132 123 115 110 100 95 96 99 101 107 117 128 128 132 126 98 98
150 150 145 141 138 147 150 141 155 168 171 158 156 156 161 164 166 166 173 173 173 174 173 174 174 178 178 174 171 161 158 158 160 159 156 156 148 147 146 144 138 123 121 129 133 134 130 120 111 103 95 97 100 101 105 105 120 129 119 109 103 110
154 149 135 135 147 153 157 157 162 162 156 152 151 156 165 166 167 173 179 175 173 176 174 177 177 177 178 171 169 163 155 158 158 159 160 163 160 162 156 146 140 133 126 121 130 137 135 125 108 101 96 86 87 95 97 102 97 104 114 113 108 108
130 112 135 159 160 159 163 155 166 163 157 152 153 155 159 165 175 178 178 177 176 178 178 175 178 179 182 177 173 162 159 160 160 166 168 171 168 165 160 150 137 136 136 132 135 137 134 131 119 95 83 83 76 74 86 95 102 105 103 99 123 124
130 140 154 177 172 166 169 169 165 163 154 154 154 160 163 169 175 173 175 175 175 178 173 173 174 182 181 177 171 165 166 163 166 167 165 167 159 157 159 144 144 132 146 145 141 149 146 145 133 135 132 116 95 73 68 82 91 97 107 117 112 111
152 149 158 173 176 177 171 168 165 159 156 151 160 161 161 166 169 170 170 170 175 173 170 172 171 175 176 175 168 164 164 162 168 157 157 156 160 162 162 155 155 150 147 150 141 151 146 289 143 142 132 134 130 124 118 94 77 79 89 97 107 100
158 153 159 178 180 180 175 165 154 155 151 149 154 153 154 156 162 163 164 169 172 170 173 176 175 175 177 162 161 165 161 173 167 168 169 162 160 158 164 160 165 157 155 151 156 154 158 203 157 152 150 167 147 154 135 108 107 86 87 77 79 91
159 161 167 180 183 164 150 139 136 141 139 132 137 149 150 152 158 160 155 165 165 168 172 173 171 175 168 159 161 168 171 168 171 175 173 167 167 170 177 174 179 167 177 166 161 164 169 191 180 0 144 140 143 192 155 139 126 92 94 105 91 100
159 156 174 181 167 160 163 153 150 151 155 157 157 163 167 161 159 162 161 152 155 167 165 165 169 170 166 164 163 169 169 170 176 168 174 177 178 177 183 182 188 187 184 179 166 164 163 185 171 51 0 350 344 321 160 154 172 129 82 81 106 110
165 158 171 170 163 161 162 165 167 168 168 167 163 165 161 159 159 151 144 150 150 158 165 164 166 169 170 171 166 169 174 178 165 169 179 183 178 194 187 191 186 196 194 177 174 171 170 170 167 138 28 340 339 9 141 158 175 136 140 108 91 105
159 157 167 164 166 168 166 169 172 173 167 161 163 158 158 155 141 135 142 147 152 156 166 168 160 161 164 167 165 166 171 173 169 169 191 192 185 178 184 165 164 209 211 197 192 189 169 170 183 163 164 188 101 116 125 28 159 169 153 135 115 69
163 160 162 166 172 174 172 171 171 164 146 135 142 146 145 137 142 139 138 143 149 143 143 140 156 156 162 165 167 169 172 176 181 175 191 186 170 181 179 180 176 191 203 202 204 171 178 184 200 168 169 159 148 137 141 115 155 181 153 141 128 117
166 166 164 168 174 178 175 169 167 156 139 132 129 126 135 137 141 150 145 147 141 145 144 141 142 157 160 168 166 166 175 176 179 177 187 171 158 170 184 183 190 196 192 186 192 199 204 192 204 165 198 164 162 152 150 144 167 171 160 158 152 138
167 165 164 174 177 178 175 172 161 151 140 138 139 138 136 141 142 150 154 153 153 144 149 139 140 144 155 156 154 169 174 172 173 172 177 166 176 178 184 194 194 198 194 191 195 195 204 208 202 184 197 196 188 186 182 184 175 180 169 150 146 143
169 165 166 175 176 175 171 168 151 146 143 145 147 149 150 151 155 160 157 154 145 142 141 127 130 132 140 147 148 149 146 147 155 166 171 178 180 182 173 182 185 193 196 201 200 199 206 203 204 206 204 205 210 215 205 212 177 181 183 153 147 142
172 156 175 169 174 166 160 156 152 151 146 149 152 153 154 152 157 160 161 154 158 158 143 143 142 139 137 150 147 141 146 144 139 145 142 158 158 168 167 177 180 190 189 192 195 201 204 203 198 204 198 198 212 206 206 189 171 175 154 130 146 147
182 156 171 166 153 146 159 151 152 152 149 151 151 155 157 156 157 160 161 162 167 160 164 160 155 149 145 150 139 126 129 117 105 119 135 140 152 164 175 181 167 178 174 183 189 202 209 190 197 200 195 191 202 192 166 161 163 160 153 155 160 156
117 104 114 81 126 158 159 156 158 159 156 154 150 157 154 143 149 155 160 163 164 159 163 155 146 125 139 139 126 126 123 123 124 127 134 145 142 147 150 161 142 134 128 140 167 182 176 175 181 182 190 206 173 168 146 160 170 172 166 166 162 155
68 71 67 23 240 156 164 160 164 165 159 154 134 118 108 122 148 162 162 163 163 160 144 132 115 130 136 140 136 131 124 115 114 112 108 116 137 151 152 163 145 142 134 137 158 173 161 170 172 178 186 170 174 155 151 161 174 165 168 161 158 163
92 111 156 190 177 144 136 142 155 154 141 131 131 144 151 155 160 163 157 153 145 130 121 130 127 121 135 129 130 131 123 120 115 112 112 114 133 145 157 157 146 142 129 133 150 143 152 164 160 174 176 171 174 155 159 158 166 158 149 153 159 168